Location: Newark
(35.8833°N, 14.5000°E)
Time: 19:13:15
(UTC+00:00)

Vanguard 2 Rocket - Visible Passes

Search period start: 20 November 2019 00:00
Search period end: 30 November 2019 00:00
Orbit: 554 x 3326 km, 32.9° (Epoch: 20 November)

Date Brightness Start Highest point End Pass type
(mag) Time Alt. Az. Time Alt. Az. Time Alt. Az.
20 Nov 9.2 01:52:42 21° ESE 01:52:42 21° ESE 01:55:19 10° E visible
20 Nov 7.9 03:58:31 31° WSW 04:01:32 48° SSW 04:11:50 10° SE visible
21 Nov 7.5 03:02:28 52° S 03:02:28 52° S 03:10:28 10° ESE visible
21 Nov 9.0 05:09:24 10° W 05:15:49 30° SSW 05:25:54 10° SSE visible
22 Nov 9.0 02:06:26 23° ESE 02:06:26 23° ESE 02:09:24 10° ESE visible
22 Nov 8.3 04:12:15 22° WSW 04:15:47 35° SSW 04:24:59 10° SE visible
23 Nov 7.8 03:16:14 40° S 03:16:14 40° S 03:24:03 10° SE visible
24 Nov 8.9 02:20:14 23° SE 02:20:14 23° SE 02:23:16 10° ESE visible
24 Nov 8.7 04:26:03 14° WSW 04:30:05 23° SSW 04:37:23 10° SSE visible
25 Nov 8.2 03:30:03 27° SSW 03:30:18 27° SSW 03:37:05 10° SE visible
26 Nov 8.9 02:34:04 20° SSE 02:34:04 20° SSE 02:36:47 10° SE visible
26 Nov 9.1 04:41:17 10° SW 04:44:27 13° SSW 04:48:17 10° S visible
27 Nov 8.7 03:43:54 16° SSW 03:44:36 17° SSW 03:49:12 10° SSE visible
28 Nov 9.1 02:47:56 15° SSE 02:47:56 15° SSE 02:49:40 10° SSE visible
28 Nov 9.3 19:02:03 10° SSW 19:04:18 16° SSW 19:04:18 16° SSW visible
29 Nov 9.0 18:02:19 10° SSW 18:07:48 17° SSE 18:08:19 17° SSE visible
